Regional Weather Roundup
Issued by NWS Sioux Falls, SD

Home | Current Version | Previous Version | Graphics & Text | Print | Product List | Glossary On
Versions: 1 2 3 4 5 6 7 8 9 10 11 12 13 14 15 16 17 18 19 20 21 22 23 24 25 26 27 28 29 30 31 32 33 34 35 36 37 38 39 40 41 42 43 44 45 46 47 48 49 50
000
ASUS43 KFSD 011710
RWRFSD

WEATHER ROUNDUP FOR SE SOUTH DAKOTA/SW MINNESOTA/NW IOWA
NATIONAL WEATHER SERVICE SIOUX FALLS SD
1200 PM CDT SAT AUG 01 2015

NOTE: "FAIR" INDICATES FEW OR NO CLOUDS BELOW 12,000 FEET WITH NO
SIGNIFICANT WEATHER AND OR OBSTRUCTIONS TO VISIBILITY.


SDZ038>040-050-052>070-011800-
SOUTHEAST SOUTH DAKOTA

CITY           SKY/WX    TMP DP  RH WIND       PRES   REMARKS
BROOKINGS      SUNNY     82  66  57 S15       29.97F
CHAMBERLAIN    PTSUNNY   81  59  47 S18G30    29.96F
HURON          SUNNY     84  65  52 S9        29.91F
MADISON        FAIR      77  64  65 SW15      29.99F
MITCHELL       PTSUNNY   77  61  57 S13       29.94F
SIOUX FALLS    PTSUNNY   78  64  61 SW12G21   30.00F
WINNER         FAIR      70  58  65 S26G38    29.98F
YANKTON        CLOUDY    77  63  61 SW15      30.00S
$$

MNZ071-072-080-081-089-090-097-098-011800-
SOUTHWEST MINNESOTA

CITY           SKY/WX    TMP DP  RH WIND       PRES   REMARKS
FAIRMONT       MOSUNNY   82  66  57 W5        29.99F
JACKSON        MOSUNNY   81  68  65 SW8G16    30.01F
LUVERNE        MOSUNNY   81  68  65 SW9       30.01F
MARSHALL       CLOUDY    81  68  65 S7        29.98F
MONTEVIDEO     PTSUNNY   79  66  65 S6        29.98S
PIPESTONE      MOSUNNY   81  68  65 SW12G17   30.00F
REDWOOD FALLS  PTSUNNY   78  66  66 SE5       29.97F
TRACY          PTSUNNY   81  72  74 SW8       29.98F
WINDOM         MOSUNNY   84  72  65 SW9G16    29.99F
WORTHINGTON    MOSUNNY   79  66  65 SW13G20   30.01F
$$

IAZ001>003-012>014-020>022-031-032-NEZ013-014-SDZ071-011800-
NORTHWEST IOWA

CITY           SKY/WX    TMP DP  RH WIND       PRES   REMARKS
CHEROKEE       PTSUNNY   80  71  73 W6        30.02S
DENISON        MOSUNNY   79  66  65 VRB3      30.02S
ESTHERVILLE    PTSUNNY   81  70  69 SW10      30.00F
LE MARS        PTSUNNY   81  66  61 SW7       30.02F
ORANGE CITY    CLOUDY    77  68  73 W8        30.03S
SHELDON        CLOUDY    79  70  73 SW7       30.01F
SIOUX CITY     PTSUNNY   81  66  60 W7        30.01F
SPENCER        CLOUDY    81  67  62 SW12      30.02S
STORM LAKE     MOSUNNY   79  68  69 SW8       30.04S
$$

ABBREVIATIONS USED IN REMARKS
   TC - TEMPERATURE IN CELSIUS
  WCI - WIND CHILL INDEX
   HX - HEAT INDEX
  VSB - VISIBILITY



USA.gov is the U.S. government's official web portal to all federal, state and local government web resources and services.